TimeCET,TemperatureF,Dew PointF,Humidity,Sea Level PressureIn,VisibilityMPH,Wind Direction,Wind SpeedMPH,Gust SpeedMPH,PrecipitationIn,Events,Conditions,WindDirDegrees,DateUTC
12:20 AM,46.4,44.6,93,30.01,-9999.0,SE,5.8,-,N/A,,Clear,130,2013-11-01 23:20:00
12:50 AM,46.4,42.8,87,30.01,5.0,Variable,3.5,-,N/A,,Mostly Cloudy,0,2013-11-01 23:50:00
1:00 AM,46,44,88,30.03,5,,4.5,,,,Mostly Cloudy,,2013-11-02 00:00:00
1:20 AM,48.2,44.6,87,29.98,5.0,SE,8.1,-,N/A,,Mostly Cloudy,130,2013-11-02 00:20:00
1:50 AM,50.0,46.4,87,29.98,-9999.0,SE,11.5,-,N/A,,Clear,130,2013-11-02 00:50:00
2:20 AM,48.2,44.6,87,29.95,-9999.0,SE,8.1,-,N/A,,Clear,130,2013-11-02 01:20:00
2:50 AM,48.2,44.6,87,29.95,-9999.0,ESE,12.7,-,N/A,,Clear,120,2013-11-02 01:50:00
3:20 AM,48.2,44.6,87,29.95,-9999.0,ESE,12.7,-,N/A,,Clear,120,2013-11-02 02:20:00
3:50 AM,46.4,44.6,93,29.92,-9999.0,ESE,10.4,-,N/A,,Clear,120,2013-11-02 02:50:00
4:00 AM,47,45,88,29.94,6,ESE,11.2,,,,Partly Cloudy,120,2013-11-02 03:00:00
4:20 AM,48.2,44.6,87,29.92,6.2,SE,9.2,-,N/A,,Scattered Clouds,130,2013-11-02 03:20:00
4:50 AM,46.4,44.6,93,29.89,5.6,SE,12.7,-,N/A,,Mostly Cloudy,140,2013-11-02 03:50:00
5:20 AM,46.4,44.6,93,29.89,5.6,SE,11.5,-,N/A,,Mostly Cloudy,130,2013-11-02 04:20:00
5:50 AM,46.4,44.6,93,29.86,5.0,SE,15.0,-,N/A,,Mostly Cloudy,130,2013-11-02 04:50:00
6:20 AM,46.4,44.6,93,29.86,5.0,SE,12.7,-,N/A,,Mostly Cloudy,140,2013-11-02 05:20:00
6:50 AM,46.4,44.6,93,29.86,3.7,SE,12.7,-,N/A,,Mostly Cloudy,130,2013-11-02 05:50:00
7:00 AM,47,45,90,29.88,4,SE,13.4,,,,Overcast,130,2013-11-02 06:00:00
7:20 AM,46.4,44.6,93,29.86,-9999.0,SE,10.4,-,N/A,,Mostly Cloudy,140,2013-11-02 06:20:00
7:50 AM,46.4,44.6,93,29.86,-9999.0,SE,11.5,-,N/A,,Mostly Cloudy,130,2013-11-02 06:50:00
8:20 AM,46.4,46.4,100,29.86,3.1,SE,10.4,-,N/A,,Mostly Cloudy,130,2013-11-02 07:20:00
8:50 AM,48.2,46.4,93,29.86,3.7,SSE,10.4,-,N/A,,Mostly Cloudy,150,2013-11-02 07:50:00
9:20 AM,48.2,46.4,93,29.86,3.7,South,5.8,-,N/A,,Mostly Cloudy,170,2013-11-02 08:20:00
9:50 AM,48.2,46.4,93,29.86,4.3,SE,3.5,-,N/A,,Mostly Cloudy,130,2013-11-02 08:50:00
10:00 AM,48,46,89,29.87,4,SE,4.5,,,,Overcast,130,2013-11-02 09:00:00
10:20 AM,50.0,46.4,87,29.86,4.3,WSW,4.6,-,N/A,,Mostly Cloudy,250,2013-11-02 09:20:00
10:50 AM,48.2,46.4,93,29.86,5.0,Variable,1.2,-,N/A,,Mostly Cloudy,0,2013-11-02 09:50:00
11:20 AM,50.0,46.4,87,29.86,5.0,West,3.5,-,N/A,,Mostly Cloudy,280,2013-11-02 10:20:00
11:50 AM,50.0,46.4,87,29.86,5.0,WSW,4.6,-,N/A,,Mostly Cloudy,250,2013-11-02 10:50:00
12:20 PM,50.0,46.4,87,29.86,5.0,WNW,3.5,-,N/A,,Mostly Cloudy,300,2013-11-02 11:20:00
12:50 PM,50.0,46.4,87,29.86,5.0,North,3.5,-,N/A,,Mostly Cloudy,350,2013-11-02 11:50:00
1:00 PM,50,46,83,29.86,5,North,4.5,,,,Overcast,350,2013-11-02 12:00:00
1:20 PM,50.0,46.4,87,29.83,5.0,NNE,3.5,-,N/A,,Mostly Cloudy,30,2013-11-02 12:20:00
1:50 PM,51.8,46.4,82,29.86,4.3,WNW,5.8,-,N/A,,Mostly Cloudy,300,2013-11-02 12:50:00
2:20 PM,51.8,46.4,82,29.86,4.3,NNW,5.8,-,N/A,Rain,Light Rain,330,2013-11-02 13:20:00
2:50 PM,51.8,46.4,82,29.86,5.0,Variable,1.2,-,N/A,,Mostly Cloudy,0,2013-11-02 13:50:00
3:20 PM,51.8,46.4,82,29.83,5.0,ESE,4.6,-,N/A,,Mostly Cloudy,120,2013-11-02 14:20:00
3:50 PM,51.8,48.2,88,29.86,4.3,Variable,1.2,-,N/A,,Mostly Cloudy,0,2013-11-02 14:50:00
4:00 PM,51,47,83,29.86,4,,2.2,,,,Scattered Clouds,,2013-11-02 15:00:00
4:20 PM,50.0,48.2,94,29.83,3.7,ESE,4.6,-,N/A,,Mostly Cloudy,120,2013-11-02 15:20:00
4:50 PM,50.0,48.2,94,29.86,3.7,SSW,6.9,-,N/A,,Mostly Cloudy,210,2013-11-02 15:50:00
5:20 PM,48.2,46.4,93,29.86,4.3,WSW,4.6,-,N/A,,Mostly Cloudy,240,2013-11-02 16:20:00
5:50 PM,48.2,46.4,93,29.86,5.0,SSW,5.8,-,N/A,,Mostly Cloudy,200,2013-11-02 16:50:00
6:20 PM,50.0,46.4,87,29.86,-9999.0,SSW,4.6,-,N/A,,Clear,200,2013-11-02 17:20:00
6:50 PM,48.2,44.6,87,29.86,4.3,South,5.8,-,N/A,,Mostly Cloudy,180,2013-11-02 17:50:00
7:00 PM,48,45,87,29.87,4,South,6.7,,,,Partly Cloudy,180,2013-11-02 18:00:00
7:20 PM,48.2,46.4,93,29.86,4.3,SSE,5.8,-,N/A,,Mostly Cloudy,150,2013-11-02 18:20:00
7:50 PM,48.2,46.4,93,29.86,4.3,South,3.5,-,N/A,,Mostly Cloudy,170,2013-11-02 18:50:00
8:20 PM,48.2,46.4,93,29.86,5.0,Variable,2.3,-,N/A,,Mostly Cloudy,0,2013-11-02 19:20:00
8:50 PM,46.4,44.6,93,29.86,5.0,SE,3.5,-,N/A,,Scattered Clouds,140,2013-11-02 19:50:00
9:20 PM,46.4,44.6,93,29.86,5.0,South,4.6,-,N/A,,Scattered Clouds,190,2013-11-02 20:20:00
9:50 PM,46.4,44.6,93,29.86,5.6,South,6.9,-,N/A,,Partly Cloudy,170,2013-11-02 20:50:00
10:00 PM,46,44,89,29.90,6,South,6.7,,,,Scattered Clouds,170,2013-11-02 21:00:00
10:20 PM,46.4,44.6,93,29.86,5.6,South,10.4,-,N/A,,Partly Cloudy,170,2013-11-02 21:20:00
10:50 PM,46.4,44.6,93,29.86,5.6,South,9.2,-,N/A,,Partly Cloudy,170,2013-11-02 21:50:00
11:20 PM,46.4,44.6,93,29.86,5.0,South,5.8,-,N/A,,Partly Cloudy,190,2013-11-02 22:20:00
11:50 PM,48.2,44.6,87,29.86,-9999.0,South,5.8,-,N/A,,Clear,190,2013-11-02 22:50:00